This is the latest recevied weather packets stored in our database for station/object DM4XI-13. If no packets are shown the sender has not sent any weather packets the latest 10 day(s).
| Time | Temp. | Humidity | Pressure | Rain* | Wind** | Luminosity | Snow |
|---|---|---|---|---|---|---|---|
| 1778007516 | 13.89° C | 87% | 1004.4 hPa | 0 mm | 0.89 m/s, 244° | 0 W/m² | - |
| 1778007456 | 13.89° C | 87% | 1004.2 hPa | 0 mm | 0.89 m/s, 217° | 0 W/m² | - |
| 1778007394 | 13.89° C | 87% | 1004.2 hPa | 0 mm | 1.79 m/s, 241° | 0 W/m² | - |
| 1778007333 | 13.89° C | 87% | 1004.2 hPa | 0 mm | 0.45 m/s, 232° | 0 W/m² | - |
| 1778007272 | 13.89° C | 87% | 1004.3 hPa | 0 mm | 1.34 m/s, 271° | 0 W/m² | - |
| 1778007212 | 13.89° C | 87% | 1004.3 hPa | 0 mm | 0.89 m/s, 238° | 0 W/m² | - |
| 1778007151 | 13.89° C | 87% | 1004.2 hPa | 0 mm | 0.89 m/s, 262° | 0 W/m² | - |
| 1778007090 | 13.89° C | 87% | 1004 hPa | 0 mm | 0.89 m/s, 225° | 0 W/m² | - |
| 1778007029 | 13.89° C | 87% | 1004.2 hPa | 0 mm | 0 m/s | 0 W/m² | - |
| 1778006967 | 13.89° C | 86% | 1004.1 hPa | 0 mm | 0.89 m/s, 245° | 0 W/m² | - |
| 1778006906 | 13.89° C | 86% | 1004.1 hPa | 0 mm | 0 m/s | 0 W/m² | - |
| 1778006844 | 13.89° C | 86% | 1003.9 hPa | 0 mm | 0.89 m/s, 289° | 0 W/m² | - |
| 1778006783 | 13.89° C | 86% | 1004.3 hPa | 0 mm | 0.89 m/s, 258° | 0 W/m² | - |
| 1778006722 | 13.89° C | 86% | 1004 hPa | 0 mm | 0.45 m/s, 205° | 0 W/m² | - |
| 1778006662 | 13.89° C | 86% | 1004.2 hPa | 0 mm | 0.89 m/s, 284° | 0 W/m² | - |
| 1778006601 | 13.89° C | 86% | 1004.1 hPa | 0 mm | 1.34 m/s, 242° | 0 W/m² | - |
| 1778006540 | 13.89° C | 86% | 1004 hPa | 0 mm | 0.45 m/s, 269° | 1 W/m² | - |
| 1778006478 | 13.89° C | 86% | 1004 hPa | 0 mm | 0.89 m/s, 290° | 1 W/m² | - |
| 1778006418 | 13.89° C | 86% | 1004.1 hPa | 0 mm | 2.24 m/s, 272° | 1 W/m² | - |
| 1778006357 | 13.89° C | 86% | 1004 hPa | 0 mm | 0.45 m/s, 210° | 1 W/m² | - |
| 1778006294 | 13.89° C | 86% | 1003.8 hPa | 0 mm | 0.45 m/s, 300° | 1 W/m² | - |
| 1778006232 | 13.89° C | 86% | 1003.9 hPa | 0 mm | 1.34 m/s, 296° | 1 W/m² | - |
| 1778006172 | 13.89° C | 86% | 1003.8 hPa | 0 mm | 2.24 m/s, 294° | 1 W/m² | - |
| 1778006111 | 13.89° C | 86% | 1004 hPa | 0 mm | 2.24 m/s, 258° | 1 W/m² | - |
| 1778006049 | 13.89° C | 86% | 1003.8 hPa | 0 mm | 1.79 m/s, 210° | 1 W/m² | - |
* Rain latest hour (hover to see other rain measurements)
** Current wind speed in m/s (hover to see current wind gust speed)